DW6561 Weather Reports


time (UTC)temp
F
wind
direction
speed
knots
gust
knots
rain 1hr
in
rain 24hr
in
rain mn
in
humidity
%
barometer
mb
20260905211533 74 337 0.0 0.0 0.00 0.00 0.00 45 1017.1
20260905210011 74 302 0.0 0.0 0.00 0.00 0.00 44 1017.2
20260905204503 74 344 0.0 0.9 0.00 0.00 0.00 44 1017.2
20260905203010 74 168 0.0 0.0 0.00 0.00 0.00 45 1017.2
20260905201516 73 304 0.0 0.0 0.00 0.00 0.00 46 1017.3
20260905200030 72 279 0.0 1.7 0.00 0.00 0.00 48 1017.4
20260905194517 71 333 0.0 0.9 0.00 0.00 0.00 49 1017.6
20260905193008 69 215 0.0 0.0 0.00 0.00 0.00 51 1017.8
20260905191511 68 151 0.0 0.0 0.00 0.00 0.00 54 1017.8
20260905190024 68 322 0.0 0.0 0.00 0.00 0.00 56 1017.9
20260905184534 66 305 0.0 0.0 0.00 0.00 0.00 58 1018.0
20260905183028 66 308 0.0 0.0 0.00 0.00 0.00 56 1018.1
20260905181514 66 320 0.0 0.0 0.00 0.00 0.00 56 1018.3
20260905180016 65 320 0.0 0.0 0.00 0.00 0.00 60 1018.5
20260905174516 64 63 0.0 0.0 0.00 0.00 0.00 61 1018.6
20260905173029 63 330 0.0 0.0 0.00 0.00 0.00 63 1018.7
20260905171542 62 324 0.0 0.9 0.00 0.00 0.00 63 1018.5
20260905170017 61 324 0.0 0.0 0.00 0.00 0.00 64 1018.5
20260905164504 61 314 0.0 0.0 0.00 0.00 0.00 65 1018.4
20260905163003 61 314 0.0 0.0 0.00 0.00 0.00 65 1018.3
20260905161508 60 314 0.0 0.9 0.00 0.00 0.00 66 1018.1
20260905160026 60 296 0.0 0.9 0.00 0.00 0.00 67 1017.8
20260905154532 59 295 0.0 1.7 0.00 0.00 0.00 68 1017.8
20260905153012 58 161 0.0 0.0 0.00 0.00 0.00 69 1017.8
20260905151506 57 161 0.0 0.0 0.00 0.00 0.00 71 1018.1
20260905150005 57 161 0.0 0.0 0.00 0.00 0.00 73 1018.1
20260905144523 56 161 0.0 0.0 0.00 0.00 0.00 76 1018.0
20260905143024 55 161 0.0 0.0 0.00 0.00 0.00 75 1017.9
20260905141522 55 161 0.0 0.0 0.00 0.00 0.00 73 1017.9
20260905140008 55 161 0.0 0.0 0.00 0.00 0.00 71 1017.8
20260905134512 55 161 0.0 0.0 0.00 0.00 0.00 71 1017.8
20260905133022 55 161 0.0 0.0 0.00 0.00 0.00 69 1017.4
20260905131531 55 161 0.0 0.0 0.00 0.00 0.00 69 1017.4
20260905130027 55 161 0.0 0.0 0.00 0.00 0.00 70 1017.3
20260905124519 55 161 0.0 0.0 0.00 0.00 0.00 70 1017.2
20260905123018 55 161 0.0 0.0 0.00 0.00 0.00 71 1017.3
20260905121518 56 161 0.0 0.0 0.00 0.00 0.00 73 1017.0
20260905120032 56 161 0.0 0.0 0.00 0.00 0.00 73 1017.0
20260905114531 56 161 0.0 0.0 0.00 0.00 0.00 69 1016.7
20260905113019 57 161 0.0 0.0 0.00 0.00 0.00 69 1016.5
20260905111523 57 161 0.0 0.0 0.00 0.00 0.00 69 1016.5
20260905110028 57 161 0.0 0.0 0.00 0.00 0.00 68 1016.4
20260905104525 57 161 0.0 0.0 0.00 0.00 0.00 67 1016.4
20260905103036 57 161 0.0 0.0 0.00 0.00 0.00 66 1016.5
20260905101502 57 161 0.0 0.0 0.00 0.00 0.00 65 1016.4
20260905100003 58 161 0.0 0.0 0.00 0.00 0.00 64 1016.5
20260905094506 58 161 0.0 0.0 0.00 0.00 0.00 62 1016.5
20260905093003 58 161 0.0 0.0 0.00 0.00 0.00 62 1016.5
20260905091504 58 173 0.0 0.0 0.00 0.00 0.00 63 1016.5
20260905090004 58 329 0.0 0.0 0.00 0.00 0.00 63 1016.3
20260905084506 58 329 0.0 0.0 0.00 0.00 0.00 63 1016.1
20260905083012 59 329 0.0 0.0 0.00 0.00 0.00 62 1016.1
20260905081509 59 329 0.0 0.0 0.00 0.00 0.00 61 1016.0
20260905080003 59 329 0.0 0.0 0.00 0.00 0.00 61 1015.8
20260905074504 59 329 0.0 0.0 0.00 0.00 0.00 61 1015.7
20260905073010 59 329 0.0 0.9 0.00 0.00 0.00 61 1015.6
20260905071515 59 344 0.0 0.9 0.00 0.00 0.00 61 1015.6
20260905070015 59 291 0.0 0.0 0.00 0.00 0.00 62 1015.5
20260905064504 58 239 0.0 0.0 0.00 0.00 0.00 63 1015.4
20260905063004 58 239 0.0 0.0 0.00 0.00 0.00 63 1015.3
20260905061507 59 229 0.0 0.9 0.00 0.00 0.00 63 1015.2
20260905060004 59 49 0.0 0.0 0.00 0.00 0.00 62 1015.1
20260905054524 59 49 0.0 0.0 0.00 0.00 0.00 61 1015.1
20260905053004 60 49 0.0 0.9 0.00 0.00 0.00 59 1015.0
20260905051508 60 17 0.0 0.0 0.00 0.00 0.00 58 1014.8
20260905050013 61 17 0.0 0.0 0.00 0.00 0.00 55 1015.0
20260905044515 62 17 0.0 0.0 0.00 0.00 0.00 49 1014.9
20260905043006 62 17 0.0 0.0 0.00 0.00 0.00 43 1014.7
20260905041528 63 17 0.0 0.0 0.00 0.00 0.00 44 1014.9
20260905040017 63 17 0.0 0.0 0.00 0.00 0.00 43 1014.9
20260905034526 64 17 0.0 0.0 0.00 0.00 0.00 42 1014.9
20260905033019 64 17 0.0 0.0 0.00 0.00 0.00 43 1014.7
20260905031515 65 17 0.0 0.0 0.00 0.00 0.00 43 1014.6
20260905030010 65 17 0.0 0.0 0.00 0.00 0.00 43 1014.4
20260905024517 66 17 0.0 0.0 0.00 0.00 0.00 41 1014.4
20260905023020 67 17 0.0 0.0 0.00 0.00 0.00 41 1014.4
20260905021533 68 17 0.0 0.0 0.00 0.00 0.00 38 1014.4
20260905020026 69 17 0.0 0.0 0.00 0.00 0.00 37 1014.3
20260905014521 69 17 0.0 0.0 0.00 0.00 0.00 38 1014.3
20260905013015 70 17 0.0 0.0 0.00 0.00 0.00 36 1014.2
20260905011501 70 19 0.0 1.7 0.00 0.00 0.00 36 1014.1
20260905010006 71 142 0.0 0.0 0.00 0.00 0.00 36 1014.0
20260905004509 71 333 0.0 0.0 0.00 0.00 0.00 35 1014.0
20260905003004 72 333 0.0 0.0 0.00 0.00 0.00 34 1013.9
20260905001503 72 117 0.0 0.0 0.00 0.00 0.00 33 1013.8
20260905000011 72 117 0.0 2.6 0.00 0.00 0.00 34 1013.9
20260904234502 72 129 0.0 0.0 0.00 0.00 0.00 36 1014.0
20260904233016 72 111 0.0 1.7 0.00 0.00 0.00 39 1013.9
20260904231503 72 117 0.0 1.7 0.00 0.00 0.00 37 1013.9
20260904230004 73 103 0.0 0.0 0.00 0.00 0.00 37 1013.9
20260904224505 74 98 0.9 2.6 0.00 0.00 0.00 38 1013.9
20260904223011 74 327 0.0 3.5 0.00 0.00 0.00 39 1014.0
20260904221506 74 109 0.0 0.9 0.00 0.00 0.00 41 1014.1
20260904220008 73 74 0.0 2.6 0.00 0.00 0.00 41 1014.2
20260904214512 73 103 0.0 0.0 0.00 0.00 0.00 45 1014.2
20260904213011 72 131 0.0 0.0 0.00 0.00 0.00 43 1014.1